Terminal Aerodrome Forecast
Issued by NWS Green Bay, WI

Home | Current Version | Previous Version | Graphics & Text | Print | Product List | Glossary On
Versions: 1 2 3 4 5 6 7 8 9 10 11 12 13 14 15 16 17 18 19 20 21 22 23 24 25 26 27 28 29 30 31 32 33 34 35 36 37 38 39 40 41
000
FTUS43 KGRB 291700
TAFGRB
TAF
KGRB 291720Z 2918/3018 33017G28KT P6SM OVC022
     FM300000 33016G23KT P6SM OVC025
     FM300300 33014KT P6SM SCT025
     FM300900 33009KT P6SM FEW020 SCT250
     FM301500 32006KT P6SM FEW020 SCT090 BKN200=

USA.gov is the U.S. government's official web portal to all federal, state and local government web resources and services.